Weather History for Auburn, AL

Change the Weather History Date:

Wednesday, March 12, 2014

  Actual Average Record
Temperature  
Mean Temperature 53 °F -  
Max Temperature 66 °F - 86 °F (1974)
Min Temperature 39 °F - 20 °F (1960)
Degree Days  
Heating Degree Days 12    
Month to date heating degree days 160  
Since 1 July heating degree days 2380  
Cooling Degree Days 0    
Month to date cooling degree days 0  
Year to date cooling degree days 0  
Growing Degree Days 4 (Base 50)    
Moisture  
Dew Point 46 °F    
Average Humidity 75    
Maximum Humidity 94    
Minimum Humidity 49    
Precipitation  
Precipitation 0.12 in - 3.79 in (2001)
Month to date precipitation 0.71  
Year to date precipitation 7.10  
Sea Level Pressure  
Sea Level Pressure 29.78 in    
Wind  
Wind Speed 14 mph (West)    
Max Wind Speed 24 mph    
Max Gust Speed 36 mph    
Visibility 9 miles    
Events      
T = Trace of Precipitation, MM = Missing Value Source: NWS Daily Summary

Daily Weather History Graph

Daily Weather History Graph

Search for Another Location

Airport:

Trip Planner

Search our weather history database for the weather conditions in past years. The results will help you decide how hot, cold, wet, or windy it might be!

Date:

Astronomy

Mar. 12, 2014 Rise Set
Actual Time 6:55 AM CDT 6:47 PM CDT
Civil Twilight 6:31 AM CDT 7:12 PM CDT
Nautical Twilight 6:02 AM CDT 7:40 PM CDT
Astronomical Twilight 5:34 AM CDT 8:09 PM CDT
Moon 3:26 PM CDT (3/12) 4:17 AM CDT (3/12)
Length of Visible Light 12h 40m
Length of Day
11h 51m
Waxing Gibbous, 85% of the Moon is Illuminated
Mar 12
Waxing Gibbous
Mar 16
Full
Mar 23
Last Quarter
Mar 30
New
Apr 7
First Quarter

Hourly Weather History & Observations

Time (CDT) Temp. Windchill Dew Point Humidity Pressure Visibility Wind Dir Wind Speed Gust Speed Precip Events Conditions
12:15 AM 60.8 °F - 57.2 °F 88% 29.76 in 4.0 mi SSE 5.8 mph - 0.03 in   Overcast
12:35 AM 59.0 °F - 55.4 °F 88% 29.75 in 9.0 mi South 11.5 mph - 0.11 in   Overcast
12:55 AM 57.2 °F - 55.4 °F 94% 29.74 in 10.0 mi South 11.5 mph - 0.16 in   Overcast
1:15 AM 57.2 °F - 55.4 °F 94% 29.73 in 9.0 mi SSW 9.2 mph - 0.04 in   Overcast
1:35 AM 57.2 °F - 55.4 °F 94% 29.72 in 7.0 mi South 9.2 mph - 0.07 in   Overcast
1:55 AM 57.2 °F - 55.4 °F 94% 29.71 in 9.0 mi South 12.7 mph - 0.08 in   Overcast
2:15 AM 57.2 °F - 55.4 °F 94% 29.69 in 10.0 mi South 10.4 mph - N/A   Overcast
2:35 AM 57.2 °F - 55.4 °F 94% 29.67 in 10.0 mi South 10.4 mph - 0.01 in   Overcast
2:55 AM 57.2 °F - 55.4 °F 94% 29.66 in 10.0 mi South 12.7 mph - 0.01 in   Overcast
3:15 AM 57.2 °F - 55.4 °F 94% 29.66 in 10.0 mi South 11.5 mph 19.6 mph N/A   Overcast
3:35 AM 57.2 °F - 55.4 °F 94% 29.66 in 3.0 mi South 13.8 mph - N/A   Overcast
3:55 AM 57.2 °F - 55.4 °F 94% 29.66 in 1.2 mi SSW 10.4 mph - N/A   Overcast
4:15 AM 57.2 °F - 55.4 °F 94% 29.66 in 2.5 mi SSW 12.7 mph 18.4 mph N/A   Overcast
4:35 AM 57.2 °F - 55.4 °F 94% 29.66 in 5.0 mi SSW 13.8 mph - 0.01 in   Overcast
4:55 AM 59.0 °F - 55.4 °F 88% 29.66 in 3.0 mi SW 12.7 mph 18.4 mph 0.02 in   Overcast
5:15 AM 59.0 °F - 55.4 °F 88% 29.67 in 5.0 mi WSW 10.4 mph - N/A   Overcast
5:35 AM 59.0 °F - 55.4 °F 88% 29.67 in 3.0 mi WSW 9.2 mph 16.1 mph 0.01 in   Overcast
5:55 AM 59.0 °F - 55.4 °F 88% 29.67 in 9.0 mi WSW 8.1 mph - 0.01 in   Overcast
6:15 AM 59.0 °F - 55.4 °F 88% 29.68 in 10.0 mi WSW 10.4 mph - N/A   Overcast
6:35 AM 57.2 °F - 55.4 °F 94% 29.68 in 10.0 mi West 10.4 mph - N/A   Overcast
6:55 AM 59.0 °F - 55.4 °F 88% 29.69 in 10.0 mi West 12.7 mph 16.1 mph N/A   Overcast
7:15 AM 59.0 °F - 55.4 °F 88% 29.69 in 10.0 mi West 8.1 mph - N/A   Overcast
7:35 AM 59.0 °F - 55.4 °F 88% 29.69 in 10.0 mi WSW 9.2 mph - N/A   Overcast
7:55 AM 57.2 °F - 55.4 °F 94% 29.70 in 5.0 mi West 10.4 mph 18.4 mph N/A   Overcast
8:15 AM 57.2 °F - 55.4 °F 94% 29.71 in 4.0 mi West 8.1 mph - N/A   Overcast
8:35 AM 57.2 °F - 55.4 °F 94% 29.71 in 5.0 mi West 8.1 mph - N/A   Overcast
8:55 AM 57.2 °F - 55.4 °F 94% 29.71 in 4.0 mi WSW 11.5 mph 17.3 mph N/A   Overcast
9:15 AM 59.0 °F - 55.4 °F 88% 29.71 in 9.0 mi West 11.5 mph 18.4 mph N/A   Overcast
9:35 AM 59.0 °F - 55.4 °F 88% 29.71 in 10.0 mi West 11.5 mph 16.1 mph N/A   Overcast
9:55 AM 59.0 °F - 55.4 °F 88% 29.71 in 10.0 mi West 9.2 mph - N/A   Overcast
10:15 AM 60.8 °F - 55.4 °F 82% 29.71 in 10.0 mi WSW 11.5 mph - N/A   Overcast
10:35 AM 60.8 °F - 55.4 °F 82% 29.71 in 10.0 mi West 12.7 mph 19.6 mph N/A   Overcast
10:55 AM 60.8 °F - 55.4 °F 82% 29.71 in 9.0 mi West 11.5 mph 16.1 mph N/A   Overcast
11:15 AM 60.8 °F - 55.4 °F 82% 29.71 in 10.0 mi WSW 10.4 mph - N/A   Overcast
12:15 PM 60.8 °F - 55.4 °F 82% 29.72 in 8.0 mi West 9.2 mph 17.3 mph N/A   Overcast
12:35 PM 60.8 °F - 55.4 °F 82% 29.71 in 10.0 mi WSW 10.4 mph - N/A   Overcast
1:55 PM 62.6 °F - 55.4 °F 77% 29.68 in 10.0 mi West 10.4 mph 16.1 mph N/A   Mostly Cloudy
2:15 PM 64.4 °F - 55.4 °F 73% 29.68 in 10.0 mi West 11.5 mph 19.6 mph N/A   Overcast
2:35 PM 66.2 °F - 55.4 °F 68% 29.67 in 10.0 mi West 12.7 mph 21.9 mph N/A   Overcast
2:55 PM 66.2 °F - 53.6 °F 64% 29.67 in 10.0 mi WNW 15.0 mph 23.0 mph N/A   Mostly Cloudy
3:15 PM 64.4 °F - 53.6 °F 68% 29.70 in 10.0 mi NW 25.3 mph 31.1 mph N/A   Overcast
3:35 PM 60.8 °F - 48.2 °F 63% 29.72 in 10.0 mi NW 23.0 mph 32.2 mph N/A   Overcast
3:55 PM 60.8 °F - 46.4 °F 59% 29.74 in 10.0 mi WNW 23.0 mph 31.1 mph N/A   Mostly Cloudy
4:15 PM 59.0 °F - 44.6 °F 59% 29.76 in 10.0 mi NW 27.6 mph 35.7 mph N/A   Scattered Clouds
4:35 PM 55.4 °F - 41.0 °F 58% 29.78 in 10.0 mi NW 19.6 mph 33.4 mph N/A   Mostly Cloudy
4:55 PM 55.4 °F - 39.2 °F 54% 29.79 in 10.0 mi NW 24.2 mph 35.7 mph N/A   Mostly Cloudy
5:15 PM 53.6 °F - 37.4 °F 54% 29.81 in 10.0 mi NNW 20.7 mph 26.5 mph N/A   Overcast
5:35 PM 51.8 °F - 35.6 °F 54% 29.84 in 10.0 mi NNW 24.2 mph 32.2 mph N/A   Overcast
5:55 PM 48.2 °F - 33.8 °F 58% 29.86 in 10.0 mi NW 20.7 mph 32.2 mph N/A   Overcast
6:15 PM 48.2 °F - 33.8 °F 58% 29.88 in 10.0 mi NW 20.7 mph 31.1 mph N/A   Overcast
6:35 PM 46.4 °F 38.7 °F 30.2 °F 53% 29.90 in 10.0 mi NW 20.7 mph 35.7 mph N/A   Overcast
6:55 PM 46.4 °F 38.7 °F 30.2 °F 53% 29.91 in 10.0 mi NNW 20.7 mph 26.5 mph N/A   Overcast
7:15 PM 46.4 °F 40.4 °F 30.2 °F 53% 29.92 in 10.0 mi NW 13.8 mph 29.9 mph N/A   Overcast
7:35 PM 46.4 °F 39.2 °F 30.2 °F 53% 29.93 in 10.0 mi NNW 18.4 mph 25.3 mph N/A   Overcast
7:55 PM 46.4 °F 38.5 °F 30.2 °F 53% 29.94 in 10.0 mi NW 21.9 mph 28.8 mph N/A   Overcast
8:15 PM 44.6 °F 37.8 °F 26.6 °F 49% 29.96 in 10.0 mi NW 15.0 mph 32.2 mph N/A   Overcast
8:35 PM 44.6 °F 36.4 °F 28.4 °F 53% 29.97 in 10.0 mi NNW 20.7 mph 28.8 mph N/A   Overcast
8:55 PM 44.6 °F 37.4 °F 26.6 °F 49% 29.98 in 10.0 mi NNW 16.1 mph 26.5 mph N/A   Mostly Cloudy
9:15 PM 42.8 °F 35.4 °F 26.6 °F 53% 29.99 in 10.0 mi NNW 15.0 mph 21.9 mph N/A   Mostly Cloudy
9:35 PM 42.8 °F 34.8 °F 26.6 °F 53% 30.00 in 10.0 mi NW 17.3 mph 21.9 mph N/A   Mostly Cloudy
9:55 PM 42.8 °F 35.4 °F 26.6 °F 53% 30.00 in 10.0 mi NW 15.0 mph 24.2 mph N/A   Overcast
10:15 PM 42.8 °F 36.6 °F 26.6 °F 53% 30.02 in 10.0 mi NW 11.5 mph 20.7 mph N/A   Overcast
10:35 PM 42.8 °F 36.6 °F 26.6 °F 53% 30.02 in 10.0 mi NNW 11.5 mph 17.3 mph N/A   Overcast
10:55 PM 42.8 °F 34.8 °F 24.8 °F 49% 30.03 in 10.0 mi NNW 17.3 mph 24.2 mph N/A   Mostly Cloudy
11:15 PM 41.0 °F 33.9 °F 24.8 °F 53% 30.03 in 10.0 mi NNW 12.7 mph 20.7 mph N/A   Partly Cloudy
11:35 PM 41.0 °F 35.2 °F 24.8 °F 53% 30.04 in 10.0 mi NNW 9.2 mph - N/A   Partly Cloudy
11:55 PM 39.2 °F 31.6 °F 24.8 °F 56% 30.05 in 10.0 mi NW 12.7 mph 20.7 mph N/A   Clear